When you browse on this site, cookies collect data to enhance your experience and personalize the content and advertising you see.
Visit our Privacy Policy to learn more. By continuing to use the site, you agree to this use of cookies and data.
  • en France
  • Liste des pays
  • À 7 jours
  • Température de l'eau
  • Carte météo
  • Widgets météo
  • user-avatar
    Se connecter

    Météo par heure à Arteaga

    Ce jour, 31 Mai, Dimanche

    Heure Température Précipitation Vent Pression Humidité
    00:00 +17°C° 0 mm 0 m/s 658 mmHg 61%
    01:00 +17°C° 0 mm 0 m/s 658 mmHg 60%
    02:00 +17°C° 0 mm 0 m/s 658 mmHg 59%
    03:00 +16°C° 0 mm 0 m/s 658 mmHg 59%
    04:00 +16°C° 0 mm 0 m/s 658 mmHg 59%
    05:00 +16°C° 0 mm 0 m/s 659 mmHg 51%
    06:00 +19°C° 0 mm 0 m/s 660 mmHg 43%
    07:00 +25°C° 0 mm 1 m/s 661 mmHg 35%
    08:00 +28°C° 0 mm 1 m/s 662 mmHg 26%
    09:00 +30°C° 0 mm 1 m/s 662 mmHg 24%
    10:00 +32°C° 0 mm 1 m/s 663 mmHg 22%
    11:00 +35°C° 0 mm 2 m/s 663 mmHg 20%
    12:00 +35°C° 0 mm 2 m/s 662 mmHg 22%
    13:00 +35°C° 0 mm 2 m/s 662 mmHg 24%
    14:00 +34°C° 0 mm 3 m/s 661 mmHg 27%
    15:00 +32°C° 0 mm 2 m/s 660 mmHg 33%
    16:00 +30°C° 0 mm 2 m/s 660 mmHg 38%
    17:00 +29°C° 0 mm 2 m/s 659 mmHg 44%
    18:00 +26°C° 0 mm 2 m/s 659 mmHg 57%
    19:00 +23°C° 0 mm 2 m/s 658 mmHg 70%
    20:00 +20°C° 0 mm 1 m/s 658 mmHg 82%
    21:00 +20°C° 0 mm 1 m/s 658 mmHg 83%
    22:00 +19°C° 0 mm 1 m/s 658 mmHg 83%
    23:00 +19°C° 0 mm 1 m/s 659 mmHg 83%

    Demain, 1 Juin, Lundi

    Heure Température Précipitation Vent Pression Humidité
    00:00 +18°C° 0 mm 1 m/s 658 mmHg 85%
    01:00 +18°C° 0 mm 1 m/s 658 mmHg 87%
    02:00 +18°C° 0 mm 1 m/s 658 mmHg 89%
    03:00 +18°C° 0 mm 1 m/s 658 mmHg 88%
    04:00 +16°C° 0 mm 0 m/s 658 mmHg 88%
    05:00 +16°C° 0 mm 0 m/s 658 mmHg 88%
    06:00 +19°C° 0 mm 0 m/s 659 mmHg 74%
    07:00 +24°C° 0 mm 1 m/s 661 mmHg 61%
    08:00 +27°C° 0 mm 1 m/s 662 mmHg 48%
    09:00 +30°C° 0 mm 1 m/s 662 mmHg 42%
    10:00 +32°C° 0 mm 1 m/s 662 mmHg 36%
    11:00 +35°C° 0 mm 2 m/s 663 mmHg 30%
    12:00 +35°C° 0 mm 2 m/s 662 mmHg 31%
    13:00 +35°C° 0 mm 2 m/s 662 mmHg 33%
    14:00 +35°C° 0 mm 3 m/s 661 mmHg 34%
    15:00 +32°C° 0 mm 2 m/s 660 mmHg 41%
    16:00 +30°C° 0 mm 2 m/s 660 mmHg 47%
    17:00 +28°C° 0 mm 2 m/s 659 mmHg 54%
    18:00 +26°C° 0 mm 2 m/s 659 mmHg 66%
    19:00 +23°C° 0 mm 2 m/s 659 mmHg 78%
    20:00 +20°C° 0 mm 2 m/s 658 mmHg 90%
    21:00 +19°C° 0 mm 2 m/s 659 mmHg 90%
    22:00 +20°C° 0 mm 1 m/s 659 mmHg 90%
    23:00 +20°C° 0 mm 1 m/s 659 mmHg 90%

    Après-demain, 2 Juin, Mardi

    Heure Température Précipitation Vent Pression Humidité
    00:00 +20°C° 0.2 mm 1 m/s 659 mmHg 91%
    01:00 +19°C° 0.2 mm 1 m/s 659 mmHg 92%
    02:00 +19°C° 0.2 mm 1 m/s 659 mmHg 93%
    03:00 +19°C° 0 mm 1 m/s 659 mmHg 94%
    04:00 +17°C° 0 mm 0 m/s 659 mmHg 94%
    05:00 +17°C° 0 mm 0 m/s 659 mmHg 94%
    06:00 +20°C° 0 mm 0 m/s 660 mmHg 82%
    07:00 +22°C° 0 mm 0 m/s 660 mmHg 71%
    08:00 +25°C° 0 mm 0 m/s 661 mmHg 59%
    09:00 +29°C° 0 mm 1 m/s 662 mmHg 51%
    10:00 +32°C° 0 mm 1 m/s 662 mmHg 43%
    11:00 +34°C° 0 mm 1 m/s 662 mmHg 35%
    12:00 +35°C° 0.1 mm 2 m/s 662 mmHg 37%
    13:00 +34°C° 0.1 mm 2 m/s 661 mmHg 39%
    14:00 +34°C° 0.1 mm 3 m/s 660 mmHg 41%
    15:00 +33°C° 0.1 mm 3 m/s 659 mmHg 46%
    16:00 +30°C° 0.1 mm 2 m/s 659 mmHg 52%
    17:00 +29°C° 0.1 mm 2 m/s 658 mmHg 57%
    18:00 +26°C° 0 mm 2 m/s 658 mmHg 67%
    19:00 +24°C° 0 mm 2 m/s 658 mmHg 78%
    20:00 +21°C° 0 mm 1 m/s 657 mmHg 89%
    21:00 +21°C° 0 mm 1 m/s 658 mmHg 90%
    22:00 +21°C° 0 mm 1 m/s 658 mmHg 91%
    23:00 +21°C° 0 mm 1 m/s 659 mmHg 92%

    3 Juin, Mercredi

    Heure Température Précipitation Vent Pression Humidité
    00:00 +20°C° 0.2 mm 1 m/s 658 mmHg 92%
    01:00 +20°C° 0.2 mm 1 m/s 658 mmHg 93%
    02:00 +18°C° 0.2 mm 0 m/s 658 mmHg 93%
    03:00 +18°C° 0.1 mm 0 m/s 658 mmHg 93%
    04:00 +18°C° 0.1 mm 0 m/s 658 mmHg 93%
    05:00 +18°C° 0.1 mm 0 m/s 658 mmHg 93%
    06:00 +20°C° 0 mm 0 m/s 658 mmHg 82%
    07:00 +23°C° 0 mm 0 m/s 659 mmHg 72%
    08:00 +25°C° 0 mm 0 m/s 660 mmHg 61%
    09:00 +29°C° 0 mm 1 m/s 660 mmHg 53%
    10:00 +32°C° 0 mm 1 m/s 661 mmHg 45%
    11:00 +34°C° 0 mm 1 m/s 661 mmHg 37%
    12:00 +35°C° 0 mm 2 m/s 660 mmHg 37%
    13:00 +35°C° 0 mm 2 m/s 659 mmHg 37%
    14:00 +35°C° 0 mm 2 m/s 658 mmHg 37%
    15:00 +32°C° 0 mm 2 m/s 658 mmHg 44%
    16:00 +30°C° 0 mm 3 m/s 657 mmHg 52%
    17:00 +28°C° 0 mm 3 m/s 656 mmHg 59%
    18:00 +26°C° 0 mm 2 m/s 656 mmHg 69%
    19:00 +24°C° 0 mm 2 m/s 656 mmHg 79%
    20:00 +21°C° 0 mm 1 m/s 656 mmHg 89%
    21:00 +21°C° 0.1 mm 1 m/s 656 mmHg 90%
    22:00 +21°C° 0.1 mm 1 m/s 657 mmHg 90%
    23:00 +21°C° 0.1 mm 1 m/s 657 mmHg 91%

    4 Juin, Jeudi

    Heure Température Précipitation Vent Pression Humidité
    00:00 +21°C° 0.2 mm 1 m/s 657 mmHg 91%
    01:00 +21°C° 0.2 mm 1 m/s 657 mmHg 92%
    02:00 +21°C° 0.2 mm 1 m/s 657 mmHg 92%
    03:00 +19°C° 0.1 mm 0 m/s 657 mmHg 92%
    04:00 +19°C° 0.1 mm 0 m/s 657 mmHg 92%
    05:00 +19°C° 0.1 mm 0 m/s 657 mmHg 91%
    06:00 +20°C° 0 mm 0 m/s 657 mmHg 87%
    07:00 +21°C° 0 mm 0 m/s 658 mmHg 82%
    08:00 +22°C° 0 mm 0 m/s 658 mmHg 77%
    09:00 +27°C° 0 mm 1 m/s 659 mmHg 66%
    10:00 +30°C° 0 mm 1 m/s 659 mmHg 55%
    11:00 +33°C° 0 mm 1 m/s 660 mmHg 44%
    12:00 +33°C° 0 mm 1 m/s 659 mmHg 43%
    13:00 +34°C° 0 mm 2 m/s 658 mmHg 42%
    14:00 +34°C° 0 mm 2 m/s 658 mmHg 41%
    15:00 +31°C° 0 mm 2 m/s 657 mmHg 50%
    16:00 +29°C° 0 mm 3 m/s 656 mmHg 58%
    17:00 +27°C° 0 mm 3 m/s 655 mmHg 67%
    18:00 +25°C° 0 mm 2 m/s 655 mmHg 74%
    19:00 +23°C° 0 mm 2 m/s 655 mmHg 82%
    20:00 +21°C° 0 mm 2 m/s 656 mmHg 89%
    21:00 +21°C° 0.3 mm 1 m/s 656 mmHg 90%
    22:00 +21°C° 0.3 mm 1 m/s 656 mmHg 91%
    23:00 +21°C° 0.3 mm 1 m/s 657 mmHg 92%

    5 Juin, Vendredi

    Heure Température Précipitation Vent Pression Humidité
    00:00 +20°C° 0.1 mm 1 m/s 657 mmHg 92%
    01:00 +20°C° 0.1 mm 1 m/s 656 mmHg 92%
    02:00 +20°C° 0.1 mm 1 m/s 656 mmHg 92%
    03:00 +18°C° 0 mm 0 m/s 656 mmHg 91%
    04:00 +18°C° 0 mm 0 m/s 656 mmHg 90%
    05:00 +18°C° 0 mm 0 m/s 657 mmHg 89%
    06:00 +20°C° 0 mm 0 m/s 657 mmHg 79%
    07:00 +23°C° 0 mm 0 m/s 658 mmHg 70%
    08:00 +25°C° 0 mm 0 m/s 659 mmHg 60%
    09:00 +29°C° 0 mm 1 m/s 659 mmHg 54%
    10:00 +31°C° 0 mm 1 m/s 660 mmHg 48%
    11:00 +34°C° 0 mm 2 m/s 660 mmHg 42%
    12:00 +32°C° 0 mm 2 m/s 659 mmHg 45%
    13:00 +31°C° 0 mm 3 m/s 658 mmHg 48%
    14:00 +30°C° 0 mm 3 m/s 658 mmHg 51%
    15:00 +29°C° 0 mm 3 m/s 657 mmHg 57%
    16:00 +28°C° 0 mm 3 m/s 657 mmHg 62%
    17:00 +26°C° 0 mm 3 m/s 656 mmHg 68%
    18:00 +25°C° 0.1 mm 2 m/s 656 mmHg 74%
    19:00 +23°C° 0.1 mm 2 m/s 657 mmHg 81%
    20:00 +20°C° 0.1 mm 2 m/s 657 mmHg 88%
    21:00 +21°C° 0.1 mm 1 m/s 657 mmHg 89%
    22:00 +21°C° 0.1 mm 1 m/s 657 mmHg 89%
    23:00 +18°C° 0.1 mm 0 m/s 658 mmHg 90%
    Voir plus